Location: �quirre
(50.4736°N, 2.2351°E)
Time: 16:26:07
(UTC+00:00)

USA 215 - Pass Details

Date: 07 August 2020
Orbit: 1102 x 1106 km, 123.0° (Epoch: 08 August)

Event Time Altitude Azimuth Distance (km) Brightness Sun altitude
Rises 01:39:30 0° 57° (ENE) 3,929 7.2 -19.5°
Reaches altitude 10° 01:42:09 10° 64° (ENE) 2,967 6.3 -19.3°
Maximum altitude 01:48:21 43° 135° (SE) 1,496 3.8 -18.9°
Enters shadow 01:51:28 27° 188° (S) 1,978 4.1 -18.6°
